{"data":{"norad_id":44779,"epoch":"2026-09-20T03:57:49.391136Z","epoch_age_seconds":89323,"freshness":"FRESH","line1":"1 44779U 19076A   26263.16515499 -.00000021  00000+0  70439-4 0  9993","line2":"2 44779  45.0046 115.3798 0011388 245.9778 113.9864 14.02115680351187","mean_motion":14.0211568,"eccentricity":0.0011388,"inclination_deg":45.0046,"raan_deg":115.3798,"arg_perigee_deg":245.9778,"mean_anomaly_deg":113.9864,"bstar":7.0439e-5,"rev_number":35118,"period_min":102.70193968589,"perigee_km":878.20518153532,"apogee_km":894.75106894457,"semimajor_km":7264.6151252399,"source":"CELESTRAK","updated_at":"2026-09-20T09:00:14.541745Z"}}